Time,TemperatureF,DewpointF,PressureIn,WindDirection,WindDirectionDegrees,WindSpeedMPH,WindSpeedGustMPH,Humidity,HourlyPrecipIn,Conditions,Clouds,dailyrainin,SoftwareType,DateUTC
2013-01-11 00:02:00,34.0,32.0,30.10,NW,313,0.0,-999.0,94,-99.99,,,-99.99,,2013-01-11 08:02:00,
2013-01-11 00:11:00,34.0,32.0,30.10,NW,313,0.0,-999.0,94,-99.99,,,-99.99,,2013-01-11 08:11:00,
2013-01-11 00:22:00,34.0,32.0,30.10,NW,313,0.0,-999.0,94,-99.99,,,-99.99,,2013-01-11 08:22:00,
2013-01-11 00:32:00,33.0,31.0,30.10,NW,313,0.0,-999.0,94,-99.99,,,-99.99,,2013-01-11 08:32:00,
2013-01-11 00:42:00,33.0,31.0,30.10,NW,313,0.0,-999.0,94,-99.99,,,-99.99,,2013-01-11 08:42:00,
2013-01-11 00:52:00,33.0,32.0,30.10,West,263,0.0,-999.0,95,-99.99,,,-99.99,,2013-01-11 08:52:00,
2013-01-11 01:02:00,33.0,32.0,30.10,West,267,0.0,-999.0,95,-99.99,,,-99.99,,2013-01-11 09:02:00,
2013-01-11 01:11:00,33.0,32.0,30.10,West,267,0.0,-999.0,95,-99.99,,,-99.99,,2013-01-11 09:11:00,
2013-01-11 01:22:00,34.0,33.0,30.10,West,277,1.0,-999.0,96,-99.99,,,-99.99,,2013-01-11 09:22:00,
2013-01-11 01:32:00,34.0,33.0,30.10,West,276,2.0,-999.0,95,-99.99,,,-99.99,,2013-01-11 09:32:00,
2013-01-11 01:42:00,34.0,33.0,30.10,West,276,2.0,-999.0,95,-99.99,,,-99.99,,2013-01-11 09:42:00,
2013-01-11 01:52:00,34.0,33.0,30.10,West,268,0.0,-999.0,95,-99.99,,,-99.99,,2013-01-11 09:52:00,
2013-01-11 02:02:00,34.0,32.0,30.10,West,268,0.0,-999.0,94,-99.99,,,-99.99,,2013-01-11 10:02:00,
2013-01-11 02:11:00,34.0,32.0,30.10,West,268,0.0,-999.0,94,-99.99,,,-99.99,,2013-01-11 10:11:00,
2013-01-11 02:22:00,33.0,32.0,30.11,WSW,248,0.0,-999.0,95,-99.99,,,-99.99,,2013-01-11 10:22:00,
2013-01-11 02:32:00,34.0,33.0,30.11,WSW,253,1.0,-999.0,96,-99.99,,,-99.99,,2013-01-11 10:32:00,
2013-01-11 02:42:00,34.0,33.0,30.11,WSW,253,1.0,-999.0,96,-99.99,,,-99.99,,2013-01-11 10:42:00,
2013-01-11 02:52:00,35.0,34.0,30.11,West,273,2.0,-999.0,95,-99.99,,,-99.99,,2013-01-11 10:52:00,
2013-01-11 03:02:00,36.0,34.0,30.11,West,279,2.0,-999.0,94,-99.99,,,-99.99,,2013-01-11 11:02:00,
2013-01-11 03:11:00,36.0,34.0,30.11,West,279,2.0,-999.0,94,-99.99,,,-99.99,,2013-01-11 11:11:00,
2013-01-11 03:22:00,36.0,34.0,30.11,WNW,291,1.0,-999.0,93,-99.99,,,-99.99,,2013-01-11 11:22:00,
2013-01-11 03:32:00,36.0,34.0,30.11,WSW,251,0.0,-999.0,93,-99.99,,,-99.99,,2013-01-11 11:32:00,
2013-01-11 03:42:00,36.0,34.0,30.11,WSW,251,0.0,-999.0,93,-99.99,,,-99.99,,2013-01-11 11:42:00,
2013-01-11 03:53:00,36.0,34.0,30.11,West,273,0.0,-999.0,93,-99.99,,,-99.99,,2013-01-11 11:53:00,
2013-01-11 04:02:00,36.0,34.0,30.10,West,273,0.0,-999.0,93,-99.99,,,-99.99,,2013-01-11 12:02:00,
2013-01-11 04:12:00,36.0,34.0,30.10,West,273,0.0,-999.0,93,-99.99,,,-99.99,,2013-01-11 12:12:00,
2013-01-11 04:22:00,36.0,34.0,30.10,WSW,248,0.0,-999.0,93,-99.99,,,-99.99,,2013-01-11 12:22:00,
2013-01-11 04:32:00,35.0,33.0,30.10,West,263,1.0,-999.0,93,-99.99,,,-99.99,,2013-01-11 12:32:00,
2013-01-11 04:42:00,35.0,33.0,30.10,West,263,1.0,-999.0,93,-99.99,,,-99.99,,2013-01-11 12:42:00,
2013-01-11 04:52:00,35.0,33.0,30.10,West,269,0.0,-999.0,93,-99.99,,,-99.99,,2013-01-11 12:52:00,
2013-01-11 05:01:00,35.0,33.0,30.11,WNW,284,0.0,-999.0,93,-99.99,,,-99.99,,2013-01-11 13:01:00,
2013-01-11 05:02:00,35.0,33.0,30.10,WNW,284,0.0,-999.0,94,-99.99,,,-99.99,,2013-01-11 13:02:00,
2013-01-11 05:12:00,35.0,33.0,30.10,WNW,284,0.0,-999.0,94,-99.99,,,-99.99,,2013-01-11 13:12:00,
2013-01-11 05:22:00,35.0,33.0,30.11,WNW,284,0.0,-999.0,93,-99.99,,,-99.99,,2013-01-11 13:22:00,
2013-01-11 05:32:00,35.0,33.0,30.11,WNW,284,0.0,-999.0,93,-99.99,,,-99.99,,2013-01-11 13:32:00,
2013-01-11 05:42:00,35.0,33.0,30.11,WNW,284,0.0,-999.0,93,-99.99,,,-99.99,,2013-01-11 13:42:00,
2013-01-11 05:52:00,35.0,33.0,30.11,WNW,284,0.0,-999.0,93,-99.99,,,-99.99,,2013-01-11 13:52:00,
2013-01-11 10:24:00,34.0,33.0,30.22,East,92,1.0,-999.0,96,-99.99,,,-99.99,,2013-01-11 18:24:00,
2013-01-11 10:33:00,33.0,32.0,30.22,East,92,0.0,-999.0,95,-99.99,,,-99.99,,2013-01-11 18:33:00,
2013-01-11 10:43:00,33.0,32.0,30.22,East,92,0.0,-999.0,95,-99.99,,,-99.99,,2013-01-11 18:43:00,
2013-01-11 10:51:00,34.0,33.0,30.24,ENE,67,0.0,-999.0,96,-99.99,,,-99.99,,2013-01-11 18:51:00,
2013-01-11 10:53:00,33.0,32.0,30.23,East,92,1.0,-999.0,96,-99.99,,,-99.99,,2013-01-11 18:53:00,
2013-01-11 11:02:00,34.0,33.0,30.23,East,80,1.0,-999.0,96,-99.99,,,-99.99,,2013-01-11 19:02:00,
2013-01-11 11:12:00,34.0,33.0,30.23,East,80,1.0,-999.0,96,-99.99,,,-99.99,,2013-01-11 19:12:00,
2013-01-11 11:22:00,34.0,33.0,30.24,ENE,67,0.0,-999.0,96,-99.99,,,-99.99,,2013-01-11 19:22:00,
2013-01-11 11:32:00,34.0,33.0,30.24,ENE,67,0.0,-999.0,96,-99.99,,,-99.99,,2013-01-11 19:32:00,
2013-01-11 11:42:00,34.0,33.0,30.24,ENE,67,0.0,-999.0,96,-99.99,,,-99.99,,2013-01-11 19:42:00,
2013-01-11 12:53:00,41.0,33.0,30.22,NE,45,2.0,-999.0,72,-99.99,,,-99.99,,2013-01-11 20:53:00,
2013-01-11 13:03:00,42.0,33.0,30.22,NNE,19,3.0,-999.0,70,-99.99,,,-99.99,,2013-01-11 21:03:00,
2013-01-11 13:12:00,42.0,34.0,30.22,ENE,76,2.0,-999.0,72,-99.99,,,-99.99,,2013-01-11 21:12:00,
2013-01-11 13:22:00,42.0,34.0,30.22,ENE,76,2.0,-999.0,72,-99.99,,,-99.99,,2013-01-11 21:22:00,
2013-01-11 13:32:00,42.0,34.0,30.23,East,87,4.0,-999.0,74,-99.99,,,-99.99,,2013-01-11 21:32:00,
2013-01-11 13:42:00,42.0,34.0,30.23,East,87,4.0,-999.0,74,-99.99,,,-99.99,,2013-01-11 21:42:00,
2013-01-11 13:53:00,42.0,35.0,30.23,ENE,73,3.0,-999.0,75,-99.99,,,-99.99,,2013-01-11 21:53:00,
2013-01-11 14:02:00,41.0,34.0,30.23,ESE,111,3.0,-999.0,76,-99.99,,,-99.99,,2013-01-11 22:02:00,
2013-01-11 14:12:00,41.0,32.0,30.24,NE,55,3.0,-999.0,71,-99.99,,,-99.99,,2013-01-11 22:12:00,
2013-01-11 14:22:00,41.0,32.0,30.24,NE,55,3.0,-999.0,71,-99.99,,,-99.99,,2013-01-11 22:22:00,
2013-01-11 14:32:00,41.0,32.0,30.24,East,98,4.0,-999.0,70,-99.99,,,-99.99,,2013-01-11 22:32:00,
2013-01-11 14:42:00,41.0,32.0,30.24,East,98,4.0,-999.0,70,-99.99,,,-99.99,,2013-01-11 22:42:00,
2013-01-11 14:52:00,41.0,32.0,30.24,ENE,65,4.0,-999.0,70,-99.99,,,-99.99,,2013-01-11 22:52:00,
2013-01-11 15:02:00,41.0,32.0,30.24,NE,55,4.0,-999.0,71,-99.99,,,-99.99,,2013-01-11 23:02:00,
2013-01-11 15:12:00,41.0,32.0,30.24,NE,55,4.0,-999.0,71,-99.99,,,-99.99,,2013-01-11 23:12:00,
2013-01-11 15:22:00,42.0,32.0,30.25,NNE,13,2.0,-999.0,67,-99.99,,,-99.99,,2013-01-11 23:22:00,
2013-01-11 15:32:00,42.0,32.0,30.25,ENE,74,1.0,-999.0,67,-99.99,,,-99.99,,2013-01-11 23:32:00,
2013-01-11 15:42:00,42.0,32.0,30.25,ENE,74,1.0,-999.0,67,-99.99,,,-99.99,,2013-01-11 23:42:00,
2013-01-11 15:53:00,41.0,31.0,30.26,NE,54,2.0,-999.0,66,-99.99,,,-99.99,,2013-01-11 23:53:00,
2013-01-11 16:02:00,40.0,30.0,30.25,ENE,74,2.0,-999.0,67,-99.99,,,-99.99,,2013-01-12 00:02:00,
2013-01-11 16:12:00,40.0,31.0,30.26,NNE,30,1.0,-999.0,70,-99.99,,,-99.99,,2013-01-12 00:12:00,
2013-01-11 16:22:00,40.0,31.0,30.26,NNE,30,1.0,-999.0,70,-99.99,,,-99.99,,2013-01-12 00:22:00,
2013-01-11 16:32:00,39.0,30.0,30.26,North,9,2.0,-999.0,69,-99.99,,,-99.99,,2013-01-12 00:32:00,
2013-01-11 16:42:00,39.0,30.0,30.26,North,9,2.0,-999.0,69,-99.99,,,-99.99,,2013-01-12 00:42:00,
2013-01-11 16:52:00,38.0,28.0,30.26,NE,42,2.0,-999.0,67,-99.99,,,-99.99,,2013-01-12 00:52:00,
2013-01-11 17:02:00,38.0,27.0,30.26,ENE,57,1.0,-999.0,65,-99.99,,,-99.99,,2013-01-12 01:02:00,
2013-01-11 17:12:00,38.0,27.0,30.26,ENE,57,1.0,-999.0,65,-99.99,,,-99.99,,2013-01-12 01:12:00,
2013-01-11 17:22:00,37.0,28.0,30.26,NE,36,0.0,-999.0,69,-99.99,,,-99.99,,2013-01-12 01:22:00,
2013-01-11 17:32:00,36.0,28.0,30.26,NE,36,0.0,-999.0,73,-99.99,,,-99.99,,2013-01-12 01:32:00,
2013-01-11 17:42:00,36.0,28.0,30.26,NE,36,0.0,-999.0,73,-99.99,,,-99.99,,2013-01-12 01:42:00,
2013-01-11 17:52:00,35.0,28.0,30.26,NE,44,0.0,-999.0,75,-99.99,,,-99.99,,2013-01-12 01:52:00,
2013-01-11 18:02:00,34.0,27.0,30.26,NE,55,1.0,-999.0,76,-99.99,,,-99.99,,2013-01-12 02:02:00,
2013-01-11 18:11:00,34.0,27.0,30.26,NE,55,1.0,-999.0,76,-99.99,,,-99.99,,2013-01-12 02:11:00,
2013-01-11 18:22:00,33.0,28.0,30.27,NE,55,0.0,-999.0,82,-99.99,,,-99.99,,2013-01-12 02:22:00,
2013-01-11 18:32:00,32.0,28.0,30.27,NE,55,0.0,-999.0,84,-99.99,,,-99.99,,2013-01-12 02:32:00,
2013-01-11 18:42:00,32.0,28.0,30.27,NE,55,0.0,-999.0,84,-99.99,,,-99.99,,2013-01-12 02:42:00,
2013-01-11 18:53:00,31.0,27.0,30.27,NE,55,0.0,-999.0,85,-99.99,,,-99.99,,2013-01-12 02:53:00,
2013-01-11 19:02:00,30.0,26.0,30.27,NE,55,0.0,-999.0,86,-99.99,,,-99.99,,2013-01-12 03:02:00,
2013-01-11 19:11:00,30.0,26.0,30.27,NE,55,0.0,-999.0,86,-99.99,,,-99.99,,2013-01-12 03:11:00,
2013-01-11 19:22:00,30.0,27.0,30.27,NE,55,0.0,-999.0,87,-99.99,,,-99.99,,2013-01-12 03:22:00,
2013-01-11 19:32:00,29.0,26.0,30.27,NE,55,0.0,-999.0,87,-99.99,,,-99.99,,2013-01-12 03:32:00,
2013-01-11 19:42:00,29.0,26.0,30.27,NE,55,0.0,-999.0,87,-99.99,,,-99.99,,2013-01-12 03:42:00,
2013-01-11 19:53:00,29.0,26.0,30.27,NE,55,0.0,-999.0,89,-99.99,,,-99.99,,2013-01-12 03:53:00,
2013-01-11 20:02:00,29.0,26.0,30.27,NE,55,0.0,-999.0,89,-99.99,,,-99.99,,2013-01-12 04:02:00,
2013-01-11 20:11:00,29.0,26.0,30.27,NE,55,0.0,-999.0,89,-99.99,,,-99.99,,2013-01-12 04:11:00,
2013-01-11 20:22:00,28.0,25.0,30.28,NE,55,0.0,-999.0,90,-99.99,,,-99.99,,2013-01-12 04:22:00,
2013-01-11 20:32:00,28.0,25.0,30.28,NE,55,0.0,-999.0,90,-99.99,,,-99.99,,2013-01-12 04:32:00,
2013-01-11 20:42:00,28.0,25.0,30.28,NE,55,0.0,-999.0,90,-99.99,,,-99.99,,2013-01-12 04:42:00,
2013-01-11 20:52:00,28.0,26.0,30.27,NE,55,0.0,-999.0,92,-99.99,,,-99.99,,2013-01-12 04:52:00,
2013-01-11 21:02:00,28.0,26.0,30.27,NE,55,0.0,-999.0,92,-99.99,,,-99.99,,2013-01-12 05:02:00,
2013-01-11 21:12:00,28.0,26.0,30.27,NE,55,0.0,-999.0,92,-99.99,,,-99.99,,2013-01-12 05:12:00,
2013-01-11 21:22:00,28.0,26.0,30.28,NE,55,0.0,-999.0,92,-99.99,,,-99.99,,2013-01-12 05:22:00,
2013-01-11 21:32:00,28.0,26.0,30.28,NE,55,0.0,-999.0,92,-99.99,,,-99.99,,2013-01-12 05:32:00,
2013-01-11 21:42:00,28.0,26.0,30.28,NE,55,0.0,-999.0,92,-99.99,,,-99.99,,2013-01-12 05:42:00,
2013-01-11 21:52:00,28.0,26.0,30.28,NE,55,0.0,-999.0,92,-99.99,,,-99.99,,2013-01-12 05:52:00,
2013-01-11 22:02:00,28.0,26.0,30.28,NE,55,0.0,-999.0,93,-99.99,,,-99.99,,2013-01-12 06:02:00,
2013-01-11 22:12:00,28.0,26.0,30.28,NE,55,0.0,-999.0,93,-99.99,,,-99.99,,2013-01-12 06:12:00,
2013-01-11 22:22:00,28.0,26.0,30.28,NE,55,0.0,-999.0,93,-99.99,,,-99.99,,2013-01-12 06:22:00,
2013-01-11 22:32:00,27.0,25.0,30.28,NE,55,0.0,-999.0,93,-99.99,,,-99.99,,2013-01-12 06:32:00,
2013-01-11 22:42:00,27.0,25.0,30.28,NE,55,0.0,-999.0,93,-99.99,,,-99.99,,2013-01-12 06:42:00,
2013-01-11 22:52:00,27.0,25.0,30.28,NE,55,0.0,-999.0,93,-99.99,,,-99.99,,2013-01-12 06:52:00,
2013-01-11 23:02:00,27.0,26.0,30.28,NE,55,0.0,-999.0,94,-99.99,,,-99.99,,2013-01-12 07:02:00,
2013-01-11 23:11:00,28.0,27.0,30.28,NE,55,0.0,-999.0,94,-99.99,,,-99.99,,2013-01-12 07:11:00,
2013-01-11 23:21:00,28.0,27.0,30.28,NE,55,0.0,-999.0,94,-99.99,,,-99.99,,2013-01-12 07:21:00,
2013-01-11 23:32:00,28.0,27.0,30.28,NE,55,0.0,-999.0,94,-99.99,,,-99.99,,2013-01-12 07:32:00,
2013-01-11 23:42:00,28.0,27.0,30.28,NE,55,0.0,-999.0,94,-99.99,,,-99.99,,2013-01-12 07:42:00,
2013-01-11 23:52:00,27.0,25.0,30.27,NE,55,0.0,-999.0,93,-99.99,,,-99.99,,2013-01-12 07:52:00,